User: anonymous   Login
Location: �chenoz-la-M�line
(47.6009°N, 6.1354°E)
Time: 07:59:41
(UTC+00:00)
Language:

In-Cosmos 22 Rocket - Orbit

View from above orbital plane
View from above orbital plane
View from above satellite
View from above satellite

Ground track
Ground track

The orbit data is extracted from the following two-line orbital elements,

1 12646U 81075B   21104.37433736 -.00000014  00000-0 -12872-4 0  9995
2 12646  81.2267 335.7762 0067061 320.9396 213.1260 14.15911649 49236
Epoch (UTC): 14 April 2021 08:59:02
Eccentricity: 0.0067061
inclination: 81.2267°
perigee height: 791 km
apogee height: 887 km
right ascension of ascending node: 335.7762°
argument of perigee: 320.9396°
revolutions per day: 14.15911649
mean anomaly at epoch: 213.1260°
orbit number at epoch: 4923

The dashed part of the orbit path shows where the satellite is in the earth's shadow,  

DLR